Location: Chiroubles
(46.1812°N, 4.6660°E)
Time: 05:18:44
(UTC+00:00)

Transit 4A - Pass Details

Date: 06 December 2020
Orbit: 864 x 980 km, 66.8° (Epoch: 25 January)

Event Time Altitude Azimuth Distance (km) Brightness Sun altitude
Rises 08:57:58 0° 281° (WNW) 3,674 10.6 12.9°
Reaches altitude 10° 09:01:49 10° 304° (NW) 2,737 9.8 13.2°
Maximum altitude 09:05:25 15° 338° (NNW) 2,375 9.5 13.6°
Drops below altitude 10° 09:09:01 10° 13° (NNE) 2,739 10.0 14.0°
Sets 09:12:54 0° 36° (NE) 3,679 10.8 14.3°
